Hourly Data Report for October 12, 2013

All times are specified in Local Standard Time (LST). Add 1 hour to adjust for Daylight Saving Time where and when it is observed.

OTTAWA INTL A
ONTARIO

45°19'00.000" N
75°40'00.000" W
114.90 m
6106001
71628
YOW

Download Data

Hourly Data (October 2013)
Hourly Data Report for October 12, 2013
Temp Definition
°C
Dew Point Temp Definition
°C
Rel Hum Definition
%
Wind Dir Definition
10's deg

Wind Spd Definition
km/h
Visibility Definition
km
Stn Press Definition
kPa
Hmdx Definition


Wind Chill Definition


Weather Definition


TIME
00:00 Legend Double Dagger 9.9 7.9 87 5 12 24.1 100.82     LegendNANA
01:00 Legend Double Dagger 9.0 7.8 92 5 14 24.1 100.85     Clear
02:00 Legend Double Dagger 8.2 7.3 94 4 13 24.1 100.86     LegendNANA
03:00 Legend Double Dagger 7.9 6.8 93 5 15 24.1 100.90     LegendNANA
04:00 Legend Double Dagger 9.6 8.4 92 7 16 24.1 100.94     Clear
05:00 Legend Double Dagger 8.7 8.0 95 6 13 24.1 100.98     LegendNANA
06:00 Legend Double Dagger 7.9 7.3 96 7 10 19.3 101.04     LegendNANA
07:00 Legend Double Dagger 8.6 7.7 94 7 9 19.3 101.11     Clear
08:00 Legend Double Dagger 10.7 9.0 89 9 13 19.3 101.14     LegendNANA
09:00 Legend Double Dagger 12.5 9.7 83 10 17 19.3 101.16     LegendNANA
10:00 Legend Double Dagger 14.7 10.2 74 7 10 19.3 101.16     Clear
11:00 Legend Double Dagger 17.0 10.2 64 10 10 24.1 101.14     LegendNANA
12:00 Legend Double Dagger 18.9 10.8 59 9 8 24.1 101.09     LegendNANA
13:00 Legend Double Dagger 20.3 9.4 49 7 5 24.1 101.05     Clear
14:00 Legend Double Dagger 21.4 10.1 48 5 7 24.1 101.02     LegendNANA
15:00 Legend Double Dagger 21.7 9.1 44 11 10 24.1 100.97     LegendNANA
16:00 Legend Double Dagger 21.1 9.2 46 9 10 24.1 100.93     Mainly Clear
17:00 Legend Double Dagger 18.7 8.8 52 10 9 24.1 100.93     LegendNANA
18:00 Legend Double Dagger 16.3 8.8 61 7 11 24.1 100.93     LegendNANA
19:00 Legend Double Dagger 14.2 8.7 69 7 10 24.1 100.96     Clear
20:00 Legend Double Dagger 12.6 8.1 74 9 11 24.1 100.97     LegendNANA
21:00 Legend Double Dagger 11.4 8.5 82 5 13 24.1 101.00     LegendNANA
22:00 Legend Double Dagger 11.6 8.8 83 7 8 24.1 101.04     Clear
23:00 Legend Double Dagger 11.2 9.0 86 8 8 24.1 101.07     LegendNANA

Notes on Data Quality.

Legend

  • E = Estimated
  • M = Missing
  • NA = Not Available
  • ‡ = Partner data that is not subject to review by the National Climate Archives
Date modified: